{"data":{"norad_id":67751,"intl_designator":"2026-027F","name":"2026-027F","alt_names":[],"object_type":"PAYLOAD","status":"ACTIVE","operator":null,"country":"PRC","launch_date":"2026-02-12","launch_site_code":"SCSLA","launch_vehicle":null,"mission":null,"orbit_class":"UNKNOWN","rcs_meters":null,"size_class":null,"mass_kg":null,"dimensions":null,"purposes":[],"wikipedia_slug":null,"has_3d_model":false,"image_url":null,"decayed_at":null,"tle_current":{"epoch":"2026-09-20T21:46:59.489472Z","epoch_age_seconds":53923,"freshness":"FRESH","line1":"1 67751U 26027F   26263.90763298  .00003544  00000+0  20376-3 0  9992","line2":"2 67751  97.5181  29.9122 0010720 139.6478 220.5550 15.13079285 33389","mean_motion":15.13079285,"eccentricity":0.001072,"inclination_deg":97.5181,"raan_deg":29.9122,"arg_perigee_deg":139.6478,"mean_anomaly_deg":220.555,"bstar":0.00020376,"rev_number":3338,"period_min":95.170161555678,"perigee_km":519.41374450597,"apogee_km":534.21796342487,"semimajor_km":6904.9528539654,"source":"CELESTRAK","updated_at":"2026-09-21T09:00:16.825530Z"}}}